www.pogodaiklimat.ru

Погода и климат >> Архив погоды >> Украина >> Гуляйполе


ПОГОДА в Гуляйполе

  • Прогноз погоды в Гуляйполе
  • Монитор погоды в Гуляйполе

АРХИВ ПОГОДЫ в Гуляйполе

Время (UTC), дата Ветер
(напр.,м/с)
 
Видим.   Явления Облачность Т
(С)
Тd
(С)
f
(%)
Тe
(С)
Тes
(С)
Комфортность P
(гПа)
Po
(гПа)
Тmin
(С)
Tmax
(С)
R
(мм)
R24
(мм)
S
(см)
15 14.07 Ю 3 20 км 8/3 1000 м
[Cu med, cong Ac trans]
+22.7 +11.7 50 +25 +26 комфорт 1008.6 993.0
18 14.07 Ю 1 20 км 3/0
[Ac trans]
+19.7 +10.9 57 +22 +22 комфорт 1008.9 993.1 +26.8
21 14.07 Ю 1 10 км ясно +12.9 +9.4 79 +13 +13 1009.0 992.9
00 15.07 Ю 1 10 км ясно +12.2 +9.7 85 +12 +12 1008.0 994.0
03 15.07 СВ 1 20 км ясно +9.3 +7.6 89 +9 +9 1008.3 992.0
06 15.07 СВ 3 20 км ясно +23.1 +12.5 51 +26 +33 жарко 1007.2 991.6 +9.1
09 15.07 ЮВ 4 20 км 4/4 1000 м
[Cu hum]
+27.3 +10.3 35 +28 +35 жарко 1006.7 991.4
12 15.07 С 3 20 км 5/5 1000 м
[Cu med, cong]
+28.5 +9.9 31 +29 +34 жарко 1005.2 992.0
15 15.07 В 3 20 км 4/4 600 м
[Cb cap]
+28.1 +9.3 31 +28 +30 жарко 1005.2 989.9
18 15.07 В 1 20 км 9/3 600 м
[Cb cap Ac trans]
+22.4 +12.0 52 +25 +25 комфорт 1005.9 990.3 +30.0
21 15.07 Ю 5 10 км 10/0
[Ac und]
+20.3 +15.6 74 +23 +23 комфорт 1006.6 990.9
00 16.07 Ю 4 10 км 10/0
[Ac und]
+19.2 +14.8 76 +21 +21 комфорт 1006.7 993.1
03 16.07 штиль 0 20 км 10/3 600 м
[Cb cap Ac und]
+17.2 +15.1 87 +17 +17 1006.8 990.9
06 16.07 С 1 20 км {ливн. осадки} 9/0
[Ac trans Ci]
+19.0 +15.3 79 +21 +28 комфорт 1006.7 990.9 +17.2 0.5
09 16.07 С 2 20 км 10/10 870 м
[Cb cap]
+22.5 +13.2 56 +25 +25 комфорт 1006.1 990.5
12 16.07 СВ 3 20 км 10/4 1000 м
[Cu med, cong Ac trans]
+20.7 +7.3 42 +22 +25 комфорт 1006.0 992.4
15 16.07 СВ 2 20 км 10/0
[Ac trans Ci]
+22.2 +14.8 63 +26 +27 душно 1005.9 990.3
18 16.07 ЮВ 1 20 км 8/0
[Ac trans]
+19.6 +15.2 76 +23 +23 комфорт 1007.0 991.3 +23.1
21 16.07 З 2 10 км 4/0
[Ac trans]
+16.2 +13.7 85 +16 +16 1007.4 991.5
00 17.07 Ю 1 4000 м дымка 3/0
[Ac trans]
+13.6 +12.5 93 +14 +14 1007.7 993.8
03 17.07 Ю 1 4000 м дымка 5/0
[Ac trans Ci]
+12.0 +11.2 95 +12 +12 1007.6 991.4
06 17.07 З 2 20 км 8/0
[Ci]
+21.4 +14.6 65 +24 +32 комфорт 1007.6 991.9 +11.6
09 17.07 СЗ 1 20 км 5/5 1000 м
[Cu med, cong]
+26.3 +10.8 38 +27 +37 жарко 1006.8 991.4
12 17.07 СЗ 2 20 км 8/8 600 м
[Cb calv]
+26.2 +9.9 36 +27 +29 жарко 1006.5 993.1
15 17.07 СЗ 2 20 км 3/3 1000 м
[Cu hum]
+26.8 +7.4 29 +26 +28 жарко 1006.0 990.6
18 17.07 З 2 20 км 3/0
[Ac trans]
+22.4 +10.2 46 +24 +24 комфорт 1007.0 991.4 +28.1
21 17.07 ЮЗ 1 10 км ясно +14.7 +8.6 67 +15 +15 1008.2 992.2
00 18.07 Ю 1 10 км ясно +11.7 +8.0 78 +12 +12 1008.3 994.2
03 18.07 ЮВ 1 20 км ясно +11.1 +7.8 80 +11 +12 1009.3 993.1
06 18.07 В 2 20 км ясно +24.1 +11.4 45 +26 +34 жарко 1008.4 992.9 +9.6
09 18.07 З 4 20 км 6/6 1000 м
[Cu med, cong]
+28.2 +9.4 31 +28 +33 жарко 1008.2 992.9
12 18.07 ЮЗ 4 20 км 8/8 1000 м
[Cu med, cong]
+30.3 +9.9 28 +30 +32 жарко 1008.1 994.9
15 18.07 ЮЗ 4 20 км 6/3 1000 м
[Cu med, cong Ci fib]
+28.1 +8.7 30 +28 +29 жарко 1008.8 993.5
18 18.07 СЗ 2 20 км ясно +22.6 +9.3 43 +24 +24 комфорт 1011.2 995.5 +30.7
21 18.07 штиль 0 10 км ясно +15.8 +9.5 66 +16 +16 1013.3 997.2
00 19.07 штиль 0 10 км ясно +13.2 +9.3 77 +13 +13 1014.2 1000.1
03 19.07 ЮЗ 1 20 км ясно +9.4 +7.1 86 +9 +10 1015.5 999.1
06 19.07 З 2 20 км ясно +22.7 +9.1 42 +24 +33 комфорт 1015.3 999.6 +9.1
12 19.07 З 4 20 км 5/5 1000 м
[Cu hum]
+28.5 +7.3 26 +28 +32 жарко 1014.8 1001.4
18 19.07 СЗ 1 20 км ясно +21.8 +10.3 48 +24 +24 комфорт 1016.4 1000.6 +29.2
00 20.07 Ю 1 10 км ясно +11.1 +7.6 79 +11 +11 1018.6 1004.4
06 20.07 В 1 20 км ясно +23.5 +11.6 47 +25 +35 комфорт 1019.8 1004.1 +9.0
12 20.07 С 2 20 км 4/0
[Ac trans]
+29.4 +7.7 26 +29 +39 жарко 1018.4 1005.0
18 20.07 СЗ 3 20 км 4/0
[Ac trans]
+23.7 +10.5 43 +25 +25 комфорт 1018.4 1002.7 +30.4
00 21.07 З 1 10 км 3/0
[Ac trans]
+12.8 +7.5 70 +13 +13 1019.6 1005.4
06 21.07 СВ 1 20 км ясно +25.6 +11.8 42 +27 +37 жарко 1018.7 1003.1 +11.3
12 21.07 СЗ 3 20 км 3/3 1000 м
[Cu hum]
+31.1 +6.6 22 +30 +37 жарко 1016.5 1003.2

 

Местоположение метеостанции Гуляйполе (Запорожская область, Украина): широта 47.67 долгота 36.25 высота над уровнем моря 135 м.

В архиве по умолчанию представлена погода в Гуляйполе за последнюю неделю. Архивные данные за месяц целиком и за предыдущие месяцы, начиная с января 2011 года, Вы можете получить, выбрав интересующий диапазон дат из раскрывающегося списка и нажав кнопку "Ввод!".


*Определитесь, кто Вы:
робот инопланетянин человек

Внимание! Время в таблицах - всемирное. Для получения местного времени необходимо прибавить поправку, которая равна 2 ч.

Смотрите также архив погоды в соседних городах и на ближайших метеорологических станциях:

Погода в Кирилловке (Запорожская область, Украина) (38 км)
Погода в Чаплино (Днепропетровская область, Украина) (51 км)
Погода в Пришибе (Запорожская область, Украина) (82 км)
Погода в Волновахе (Донецкая область, Украина) (83 км)
Погода в Запорожье (Запорожская область, Украина) (93 км)
Погода в Синельниково (Днепропетровская область, Украина) (99 км)
Погода в Павлограде (Днепропетровская область, Украина) (101 км)
Погода в Александрополе (Днепропетровская область, Украина) (106 км)
Погода в Бердянске (Запорожская область, Украина) (110 км)
Погода в Ботиево (Запорожская область, Украина) (114 км)

Пояснения к столбцам:

Ветер - указаны скорость ветра в м/с - средняя за 10 мин, порывы в срок и между сроками (в фигурных скобках) и направление, откуда дует ветер: С - северный, СВ - северо-восточный, В - восточный, ЮВ - юго-восточный, Ю - южный, ЮЗ - юго-западный, З - западный, СЗ - северо-западный.
Видимость - горизонтальная дальность видимости в метрах или километрах. При видимости от 1 до 10 км при отсутствии осадков обычно наблюдается дымка, при ухудшении видимости до 1 км и менее - туман. В сухую погоду видимость может ухудшаться дымом, пылью или мглою.
Явления - указаны атмосферные явления, наблюдавшиеся в срок или в последний час перед сроком; фигурными скобками обозначены явления, наблюдавшиеся между сроками (за 1-3 часа до срока); квадратными скобками обозначены град или гололедные отложения с указанием их диаметра в мм.
Облачность - указаны через наклонную черту общая и нижняя облачность в баллах и высота нижней границы облаков в метрах; квадратными скобками обозначены формы облаков: Ci - перистые, Cs - перисто-слоистые, Cc - перисто-кучевые, Ac - высококучевые, As - высокослоистые, Sc - слоисто-кучевые, Ns - слоисто-дождевые, Cu - кучевые, Cb - кучево-дождевые. Подробнее классификацию облаков см. в Атласе облаков (PDF).
T - Температура воздуха - температура, измеренная на высоте 2 м над землей.
Td - Температура точки росы - температура, при понижении до которой содержащийся в воздухе водяной пар достигнет насыщения.
f - Относительная влажность воздуха - влажноcть воздуха, измеренная на высоте 2 м над землей.
Te - Эффективная температура - температура, которую ощущает одетый по сезону человек в тени. Характеристика душности погоды. При расчете учитывается влияние влажности воздуха и скорости ветра на теплоощущения человека.
Tes - Эффективная температура на солнце - температура, которую ощущает человек, с поправкой на солнечный нагрев. Характеристика знойности погоды. Зависит от высоты солнца над горизонтом, облачности и скорости ветра. Ночью, в пасмурную погоду, а также при ветре 12 м/с и более поправка равна нулю.
P - Атмосферное давление - приведенное к уровню моря атмосферное давление.
Po - Атмосферное давление - измеренное на уровне метеостанции атмосферное давление.
Tmin - Минимальная температура - минимум температуры воздуха на высоте 2 м над землей.
Tmax - Максимальная температура - максимум температуры воздуха на высоте 2 м над землей.
R - Количество осадков - Количество выпавших осадков за период времени, мм. При наведении курсора мыши на число - период времени, за который выпало указанное количество осадков.
R24 - Количество осадков - Количество выпавших осадков за 24 часа, мм.
S - Снежный покров - Высота снежного покрова, см. При наведении курсора мыши на число - состояние снежного покрова и степень покрытия местности в баллах.